Location: *
(58.7167°N, 26.1833°E)
Time: 18:25:16
(UTC+00:00)

Cosmos 1271 Rocket - Pass Details

Date: 25 August 2019
Orbit: 499 x 546 km, 81.2° (Epoch: 14 October)

Event Time Altitude Azimuth Distance (km) Brightness Sun altitude
Rises 23:26:18 0° 343° (NNW) 2,652 7.2 -19.3°
Reaches altitude 10° 23:28:28 10° 341° (NNW) 1,752 6.1 -19.2°
Maximum altitude 23:32:18 73° 257° (WSW) 538 2.6 -19.0°
Enters shadow 23:32:58 56° 194° (SSW) 611 2.6 -19.0°
